Weather History for Pensacola, FL

Change the Weather History Date:

Friday, November 2, 2012

  Actual Average Record
Temperature  
Mean Temperature 68 °F 64 °F  
Max Temperature 83 °F 74 °F 87 °F (1959)
Min Temperature 53 °F 55 °F 31 °F (1966)
Degree Days  
Heating Degree Days 0 3  
Month to date heating degree days 0 6  
Since 1 July heating degree days 29 44  
Cooling Degree Days 2 3  
Month to date cooling degree days 6  
Year to date cooling degree days 2556  
Growing Degree Days 18 (Base 50)    
Moisture  
Dew Point 58 °F    
Average Humidity 70    
Maximum Humidity 89    
Minimum Humidity 50    
Precipitation  
Precipitation 0.00 in 0.16 in 3.55 in (1889)
Month to date precipitation T 0.33  
Year to date precipitation 63.31 56.32  
Snow  
Snow 0.00 in 0.00 in 0.00 in (2002)
Month to date snowfall 0.0  
Since 1 July snowfall 0.0  
Snow Depth -    
Sea Level Pressure  
Sea Level Pressure 30.04 in    
Wind  
Wind Speed 5 mph (WSW)    
Max Wind Speed 16 mph    
Max Gust Speed 22 mph    
Visibility 10 miles    
Events      
T = Trace of Precipitation, MM = Missing Value Source: NWS Daily Summary

Daily Weather History Graph

Daily Weather History Graph

Search for Another Location

Airport:

Trip Planner

Search our weather history database for the weather conditions in past years. The results will help you decide how hot, cold, wet, or windy it might be!

Date:

Astronomy

Nov. 02, 2012 Rise Set
Actual Time 7:04 AM CDT 5:59 PM CDT
Civil Twilight 6:39 AM CDT 6:24 PM CDT
Nautical Twilight 6:11 AM CDT 6:53 PM CDT
Astronomical Twilight 5:42 AM CDT 7:21 PM CDT
Moon 8:54 PM CDT (11/2) 10:16 AM CDT (11/2)
Length of Visible Light 11h 45m
Length of Day
10h 55m
Waning Gibbous, 87% of the Moon is Illuminated
Nov 2
Waning Gibbous
Nov 6
Last Quarter
Nov 13
New
Nov 20
First Quarter
Nov 28
Full

Hourly Weather History & Observations

Time (CDT) Temp. Heat Index Dew Point Humidity Pressure Visibility Wind Dir Wind Speed Gust Speed Precip Events Conditions
12:53 AM 57.9 °F - 48.0 °F 70% 30.04 in 10.0 mi Calm Calm - N/A   Clear
1:53 AM 55.0 °F - 48.0 °F 77% 30.05 in 10.0 mi Calm Calm - N/A   Clear
2:53 AM 54.0 °F - 48.9 °F 83% 30.04 in 10.0 mi Calm Calm - N/A   Clear
3:53 AM 55.0 °F - 50.0 °F 83% 30.03 in 10.0 mi Calm Calm - N/A   Clear
4:53 AM 53.1 °F - 50.0 °F 89% 30.04 in 10.0 mi Calm Calm - N/A   Clear
5:53 AM 55.0 °F - 51.1 °F 86% 30.05 in 10.0 mi Calm Calm - N/A   Clear
6:53 AM 55.0 °F - 52.0 °F 89% 30.05 in 10.0 mi Calm Calm - N/A   Clear
7:53 AM 57.0 °F - 54.0 °F 89% 30.06 in 9.0 mi Calm Calm - N/A   Clear
8:53 AM 66.0 °F - 59.0 °F 78% 30.08 in 10.0 mi Calm Calm - N/A   Clear
9:53 AM 73.9 °F - 59.0 °F 59% 30.09 in 10.0 mi SW 8.1 mph - N/A   Clear
10:53 AM 77.0 °F - 57.9 °F 52% 30.09 in 10.0 mi SW 10.4 mph - N/A   Clear
11:53 AM 79.0 °F - 61.0 °F 54% 30.07 in 10.0 mi West 6.9 mph - N/A   Clear
12:53 PM 81.0 °F 82.2 °F 63.0 °F 54% 30.04 in 10.0 mi West 9.2 mph - N/A   Scattered Clouds
1:53 PM 82.0 °F 83.0 °F 62.1 °F 51% 30.01 in 10.0 mi SW 12.7 mph - N/A   Scattered Clouds
2:53 PM 82.0 °F 83.1 °F 63.0 °F 52% 30.01 in 10.0 mi WSW 11.5 mph - N/A   Clear
3:53 PM 81.0 °F 82.2 °F 63.0 °F 54% 30.00 in 10.0 mi WSW 11.5 mph - N/A   Partly Cloudy
4:53 PM 78.1 °F - 61.0 °F 56% 30.00 in 10.0 mi West 11.5 mph - N/A   Clear
5:53 PM 75.0 °F - 60.1 °F 60% 30.01 in 10.0 mi West 9.2 mph - N/A   Clear
6:53 PM 72.0 °F - 61.0 °F 68% 30.02 in 10.0 mi WSW 8.1 mph - N/A   Clear
7:53 PM 70.0 °F - 64.0 °F 81% 30.03 in 10.0 mi West 9.2 mph - N/A   Clear
8:53 PM 69.1 °F - 64.9 °F 87% 30.05 in 9.0 mi WSW 8.1 mph - N/A   Clear
9:53 PM 69.1 °F - 64.9 °F 87% 30.06 in 7.0 mi West 8.1 mph - N/A   Clear
10:53 PM 68.0 °F - 64.9 °F 90% 30.06 in 6.0 mi West 4.6 mph - N/A   Clear
11:53 PM 68.0 °F - 66.0 °F 93% 30.06 in 6.0 mi West 5.8 mph - N/A   Clear